[[{"header":{"parameterUnit":"m.s-1","parameterCategory":1,"la1":30.2991,"la2":30.254,"lo1":-89.0895,"lo2":-89.0444,"dy":0.0017,"dx":0.0017,"nx":28,"ny":28,"refTime":"2026-02-10T03:00:00:Z","depth":0,"parameterNumber":2,"parameterNumberName":"U-component_of_WINDS"},"data":[0,0,0,0,0,0,0,0,0,0,0,0,0,0,0,0,0,0,0,0,0,0,0,0,0,0,0,0,0,0,0,0,0,0,0,0,0,0,0,0,0,0,0,0,0,0,0,0,0,0,0,0,0,0,0,0,0,0,-1.532,-1.532,0,-1.5345,-1.5345,-1.5345,-1.5285,-1.5283,-1.5282,-1.528,-1.5307,-1.5309,-1.5312,0,0,0,0,0,0,0,0,0,0,0,0,0,-1.5223,-1.5225,-1.532,-1.532,-1.532,-1.5345,-1.5345,-1.5345,-1.5286,-1.5283,-1.5281,-1.5279,-1.5306,-1.5309,-1.5312,0,0,0,0,0,0,0,0,0,0,0,0,0,-1.5258,-1.5225,-1.532,-1.5293,-1.5291,-1.5345,-1.5345,-1.5346,-1.5286,-1.5283,-1.528,-1.5278,-1.5305,-1.5309,-1.5312,-1.5393,0,0,-1.5324,-1.5325,0,0,0,0,0,0,0,0,-1.5256,-1.5262,-1.5297,-1.5295,-1.5293,-1.5309,-1.5321,-1.5361,-1.5287,-1.5288,-1.528,-1.5276,-1.531,-1.5313,-1.5324,-1.5394,-1.5395,-1.5324,-1.5326,-1.5328,-1.5329,0,0,0,0,0,0,0,-1.5254,-1.526,-1.533,-1.5298,-1.5295,-1.5281,-1.5283,-1.5328,-1.5315,-1.5288,-1.5284,-1.5287,-1.5308,-1.5321,-1.5324,-1.5396,-1.5324,-1.5327,-1.533,-1.5331,-1.5534,-1.5537,0,0,0,0,0,0,-1.5254,-1.5259,-1.5329,-1.533,-1.5267,-1.5285,-1.5287,-1.5307,-1.5314,-1.5313,-1.529,-1.5284,-1.5316,-1.532,-1.5325,-1.542,-1.5328,-1.5331,-1.5334,-1.5531,-1.5535,-1.5538,0,0,0,0,0,0,-1.5252,-1.5261,-1.5328,-1.5293,-1.5301,-1.529,-1.5312,-1.5309,-1.5321,-1.5316,-1.5313,-1.5305,-1.5314,-1.532,-1.5377,-1.542,-1.5333,-1.5337,-1.5528,-1.5532,-1.5537,-1.5612,0,0,0,0,0,0,-1.525,-1.5261,-1.5291,-1.5294,-1.5303,-1.5379,-1.5315,-1.5311,-1.5327,-1.5321,-1.5329,-1.5327,-1.5312,-1.5371,-1.538,-1.5424,-1.5339,-1.5524,-1.553,-1.5535,-1.5605,-1.5618,-1.5629,0,0,0,0,0,-1.5247,-1.5311,-1.5292,-1.5301,-1.534,-1.5381,-1.5386,-1.5366,-1.5331,-1.5362,-1.5358,-1.5327,-1.5414,-1.5378,-1.5387,-1.5433,-1.5521,-1.5528,-1.5535,-1.56,-1.5616,-1.5629,0,0,0,0,0,0,-1.5312,-1.531,-1.529,-1.5357,-1.537,-1.5371,-1.5408,-1.5384,-1.5407,-1.5399,-1.5374,-1.5377,-1.5439,-1.5441,-1.5401,-1.5512,-1.5462,-1.5471,-1.5508,-1.5523,-1.5535,-1.5533,-1.5343,0,0,0,0,0,-1.5334,-1.5367,-1.5364,-1.5424,-1.5431,-1.5419,-1.5436,-1.542,-1.5432,-1.5437,-1.5438,-1.5452,-1.5482,-1.5503,-1.553,-1.5605,-1.5607,-1.5642,-1.5654,-1.5664,-1.5672,-1.5714,-1.5729,-1.5562,-1.5562,-1.5562,0,0,-1.538,-1.5384,-1.5406,-1.5437,-1.5445,-1.5481,-1.5424,-1.5464,-1.549,-1.5443,-1.5497,-1.5499,-1.5512,-1.5579,-1.5608,-1.5583,-1.5719,-1.5673,-1.5681,-1.5684,-1.5723,-1.5738,-1.5753,-1.5567,-1.5566,-1.5565,0,0,-1.5483,-1.5488,-1.5539,-1.5548,-1.5561,-1.5552,-1.5565,-1.557,-1.5569,-1.5623,-1.5589,-1.5621,-1.5674,-1.5685,-1.5698,-1.5807,-1.5779,-1.5817,-1.588,-1.5921,-1.5934,-1.5945,-1.5985,-1.6,-1.5825,-1.5825,-1.5825,0,-1.5539,-1.559,-1.5568,-1.5611,-1.5626,-1.5586,-1.5637,-1.5648,-1.5669,-1.5681,-1.5652,-1.5719,-1.5725,-1.5794,-1.5821,-1.5833,-1.5847,-1.5815,-1.5934,-1.5945,-1.5956,-1.5993,-1.6008,-1.583,-1.5829,-1.5829,-1.5828,0,-1.5659,-1.5695,-1.5735,-1.5757,-1.5776,-1.5823,-1.5809,-1.5832,-1.5815,-1.581,-1.5866,-1.5873,-1.5902,-1.5917,-1.59,-1.5985,-1.5969,-1.5938,-1.5887,-1.5976,-1.6011,-1.6025,-1.5836,-1.5834,-1.5833,-1.5832,0,0,-1.5801,-1.5811,-1.5826,-1.5836,-1.5848,-1.5876,-1.5923,-1.5951,-1.5971,-1.5988,-1.6027,-1.6073,-1.6045,-1.6059,-1.6044,-1.608,-1.6167,-1.6044,-1.6044,-1.6067,-1.6262,-1.6285,-1.6302,-1.6149,-1.6152,-1.6154,-1.6261,0,-1.5903,-1.5981,-1.5963,-1.6041,-1.6075,-1.6038,-1.6079,-1.6091,-1.6088,-1.6118,-1.6115,-1.6149,-1.6108,-1.6117,-1.6151,-1.6149,-1.6206,-1.6141,-1.6186,-1.6187,-1.6183,-1.632,-1.6344,-1.6445,-1.6274,-1.6276,-1.6278,0,-1.6031,-1.6053,-1.6134,-1.6141,-1.6155,-1.6192,-1.6217,-1.6245,-1.6259,-1.6255,-1.6272,-1.6251,-1.6298,-1.6247,-1.6312,-1.6269,-1.6286,-1.6288,-1.6292,-1.6295,-1.6238,-1.6327,-1.6476,-1.6491,-1.6299,-1.6297,-1.6296,0,-1.6127,-1.6177,-1.6232,-1.6242,-1.6252,-1.6279,-1.6285,-1.6296,-1.6314,-1.6337,-1.6349,-1.6377,-1.6392,-1.6415,-1.6402,-1.6366,-1.647,-1.6418,-1.6468,-1.6469,-1.6491,-1.649,-1.6645,-1.6503,-1.6503,-1.6502,-1.6502,0,-1.6242,-1.6293,-1.6276,-1.631,-1.6367,-1.6347,-1.6404,-1.6405,-1.6416,-1.645,-1.6421,-1.6454,-1.6435,-1.6467,-1.6458,-1.6513,-1.6521,-1.6519,-1.6516,-1.6522,-1.6522,-1.6532,-1.6525,-1.6506,-1.6506,-1.6505,-1.6504,0,-1.6359,-1.6349,-1.6407,-1.6413,-1.6415,-1.6457,-1.6462,-1.6495,-1.649,-1.6535,-1.6544,-1.6538,-1.6574,-1.6564,-1.6603,-1.6597,-1.6668,-1.6656,-1.6663,-1.666,-1.6711,-1.6707,-1.6879,-1.6901,-1.6744,-1.6746,-1.6747,0,-1.6433,-1.6471,-1.6481,-1.6502,-1.651,-1.6544,-1.6563,-1.6546,-1.6567,-1.6587,-1.6618,-1.6651,-1.6677,-1.6738,-1.6737,-1.6768,-1.6756,-1.6815,-1.6761,-1.6766,-1.6758,-1.6756,-1.676,-1.6825,-1.6827,-1.6829,-1.683,0,-1.6565,-1.6558,-1.6587,-1.6614,-1.6638,-1.6659,-1.6677,-1.6696,-1.668,-1.6706,-1.6743,-1.6763,-1.6804,-1.6839,-1.6867,-1.6874,-1.685,-1.6847,-1.686,-1.6866,-1.6869,-1.6869,-1.6692,-1.6843,-1.6841,-1.6841,-1.684,-1.6839,-1.6662,-1.6695,-1.6708,-1.6741,-1.6753,-1.6771,-1.6802,-1.6802,-1.6833,-1.6864,-1.6853,-1.6896,-1.6911,-1.6946,-1.6957,-1.6991,-1.6969,-1.6988,-1.6993,-1.6998,-1.7005,-1.6864,-1.6996,-1.6996,-1.6995,-1.6995,-1.6995,0,-1.6793,-1.68,-1.683,-1.6857,-1.6884,-1.6859,-1.6878,-1.6902,-1.694,-1.6956,-1.6983,-1.7026,-1.706,-1.7063,-1.7095,-1.7122,-1.7112,-1.7131,-1.7129,-1.7131,-1.7022,-1.7008,-1.7139,-1.7139,-1.7139,-1.7139,-1.7139,-1.7139,-1.6864,-1.6919,-1.6915,-1.6976,-1.6983,-1.7024,-1.7037,-1.7055,-1.7067,-1.7117,-1.7145,-1.7147,-1.7158,-1.7191,-1.7221,-1.7222,-1.7235,-1.7258,-1.7255,-1.7153,-1.7138,-1.7125,-1.7111,-1.7262,-1.7262,-1.736,-1.7361,-1.7362]},{"header":{"parameterUnit":"m.s-1","parameterCategory":1,"la1":30.2991,"la2":30.254,"lo1":-89.0895,"lo2":-89.0444,"dy":0.0017,"dx":0.0017,"nx":28,"ny":28,"refTime":"2026-02-10T03:00:00:Z","depth":0,"parameterNumber":3,"parameterNumberName":"V-component_of_WINDS"},"data":[0,0,0,0,0,0,0,0,0,0,0,0,0,0,0,0,0,0,0,0,0,0,0,0,0,0,0,0,0,0,0,0,0,0,0,0,0,0,0,0,0,0,0,0,0,0,0,0,0,0,0,0,0,0,0,0,0,0,-0.0229,-0.0228,0,-0.0172,-0.0171,-0.017,-0.0121,-0.0121,-0.012,-0.012,-0.006,-0.0059,-0.0058,0,0,0,0,0,0,0,0,0,0,0,0,0,-0.0292,-0.0291,-0.0229,-0.0228,-0.0227,-0.0172,-0.0171,-0.017,-0.0121,-0.0121,-0.012,-0.012,-0.006,-0.0059,-0.0058,0,0,0,0,0,0,0,0,0,0,0,0,0,-0.0253,-0.0291,-0.0229,-0.0196,-0.0193,-0.0172,-0.0171,-0.017,-0.0122,-0.0121,-0.012,-0.0119,-0.0061,-0.0059,-0.0057,-0.0064,0,0,-0.0052,-0.0052,0,0,0,0,0,0,0,0,-0.0255,-0.0251,-0.0202,-0.0198,-0.0194,-0.0153,-0.0171,-0.0134,-0.0122,-0.0149,-0.012,-0.0119,-0.0091,-0.0087,-0.0078,-0.0061,-0.0058,-0.0052,-0.0051,-0.0051,-0.005,0,0,0,0,0,0,0,-0.0258,-0.0253,-0.0206,-0.0201,-0.0197,-0.0183,-0.0177,-0.0164,-0.0125,-0.0146,-0.0142,-0.0136,-0.0089,-0.008,-0.0076,-0.0057,-0.0052,-0.0051,-0.005,-0.0049,-0.004,-0.004,0,0,0,0,0,0,-0.0266,-0.0255,-0.0208,-0.0204,-0.0223,-0.0183,-0.0176,-0.0167,-0.0125,-0.0118,-0.0137,-0.0134,-0.0083,-0.0078,-0.0074,-0.0077,-0.0051,-0.0049,-0.0048,-0.0039,-0.004,-0.0041,0,0,0,0,0,0,-0.0268,-0.0262,-0.021,-0.0229,-0.0221,-0.0183,-0.0173,-0.0166,-0.0157,-0.0118,-0.0111,-0.0135,-0.0082,-0.0076,-0.0066,-0.0074,-0.0048,-0.0047,-0.0038,-0.0039,-0.004,-0.0084,0,0,0,0,0,0,-0.027,-0.0263,-0.0266,-0.0229,-0.022,-0.0204,-0.0174,-0.0166,-0.0154,-0.015,-0.0114,-0.0108,-0.0081,-0.0069,-0.0065,-0.0072,-0.0046,-0.0037,-0.0039,-0.004,-0.0082,-0.0087,-0.0091,0,0,0,0,0,-0.0272,-0.0281,-0.0266,-0.0261,-0.0223,-0.0205,-0.02,-0.0169,-0.0155,-0.0157,-0.0132,-0.0109,-0.0074,-0.0068,-0.0063,-0.007,-0.0036,-0.0038,-0.004,-0.008,-0.0086,-0.0091,0,0,0,0,0,0,-0.032,-0.0276,-0.0259,-0.0256,-0.0235,-0.0197,-0.0198,-0.0177,-0.0159,-0.0155,-0.0118,-0.011,-0.0104,-0.0085,-0.008,-0.0072,-0.0052,-0.0053,-0.0085,-0.009,-0.0094,-0.0099,-0.0044,0,0,0,0,0,-0.033,-0.0319,-0.0281,-0.0282,-0.0272,-0.0237,-0.0228,-0.0207,-0.0182,-0.0173,-0.0147,-0.0124,-0.0107,-0.0098,-0.0081,-0.0079,-0.0069,-0.0081,-0.0085,-0.0089,-0.009,-0.0086,-0.009,-0.0046,-0.0046,-0.0046,0,0,-0.0351,-0.0325,-0.0321,-0.0291,-0.0272,-0.0261,-0.023,-0.022,-0.0211,-0.0171,-0.016,-0.014,-0.0111,-0.0105,-0.0101,-0.009,-0.01,-0.0091,-0.0095,-0.0093,-0.0088,-0.0092,-0.0096,-0.0047,-0.0047,-0.0047,0,0,-0.0383,-0.0364,-0.0362,-0.0343,-0.0314,-0.029,-0.029,-0.0254,-0.0239,-0.0227,-0.0197,-0.0185,-0.0158,-0.0138,-0.0125,-0.0147,-0.0125,-0.0143,-0.0166,-0.0163,-0.0166,-0.0169,-0.0176,-0.0179,-0.0144,-0.0144,-0.0144,0,-0.0413,-0.0396,-0.0363,-0.0355,-0.0342,-0.0305,-0.0302,-0.0285,-0.0252,-0.0243,-0.0231,-0.0195,-0.0173,-0.0161,-0.0166,-0.0157,-0.0154,-0.0147,-0.0168,-0.0171,-0.0173,-0.0179,-0.0182,-0.0146,-0.0146,-0.0146,-0.0146,0,-0.0433,-0.0421,-0.0423,-0.0392,-0.0379,-0.0373,-0.0339,-0.0329,-0.0308,-0.0285,-0.0272,-0.0245,-0.022,-0.0216,-0.0195,-0.02,-0.0194,-0.0176,-0.0154,-0.018,-0.0185,-0.0187,-0.015,-0.0149,-0.0148,-0.0148,0,0,-0.0495,-0.0445,-0.0446,-0.043,-0.0395,-0.0385,-0.0376,-0.0353,-0.0345,-0.0323,-0.0314,-0.0291,-0.0273,-0.0258,-0.0234,-0.0231,-0.0249,-0.0213,-0.0212,-0.022,-0.025,-0.0264,-0.0267,-0.0233,-0.0234,-0.0234,-0.0252,0,-0.0521,-0.0505,-0.0475,-0.0468,-0.0455,-0.0419,-0.0412,-0.0388,-0.0366,-0.0352,-0.0326,-0.031,-0.0289,-0.0279,-0.0275,-0.0248,-0.0254,-0.0246,-0.0223,-0.0223,-0.0232,-0.027,-0.0285,-0.0303,-0.0254,-0.0254,-0.0255,0,-0.055,-0.053,-0.0522,-0.0485,-0.0479,-0.0473,-0.0448,-0.0435,-0.0406,-0.039,-0.0372,-0.0346,-0.0334,-0.0314,-0.0296,-0.0291,-0.0279,-0.0264,-0.0264,-0.0261,-0.0241,-0.0267,-0.0309,-0.0311,-0.0258,-0.0257,-0.0257,0,-0.0595,-0.0565,-0.0556,-0.0544,-0.0502,-0.0498,-0.048,-0.0451,-0.0438,-0.0416,-0.0407,-0.0383,-0.037,-0.0352,-0.0319,-0.0308,-0.0303,-0.0282,-0.0288,-0.0289,-0.0289,-0.029,-0.0329,-0.0283,-0.0283,-0.0283,-0.0283,0,-0.0627,-0.0623,-0.0576,-0.057,-0.0564,-0.0528,-0.0523,-0.0501,-0.0475,-0.0464,-0.0431,-0.042,-0.0378,-0.0362,-0.0337,-0.0324,-0.0319,-0.0304,-0.0297,-0.0307,-0.0309,-0.0299,-0.0297,-0.0283,-0.0283,-0.0283,-0.0283,0,-0.0677,-0.0645,-0.0632,-0.0592,-0.0582,-0.058,-0.0545,-0.0537,-0.0512,-0.0498,-0.0492,-0.0453,-0.0433,-0.0398,-0.0368,-0.035,-0.0342,-0.0331,-0.0352,-0.0348,-0.0356,-0.0355,-0.0391,-0.0393,-0.0346,-0.0346,-0.0347,0,-0.0699,-0.0695,-0.0655,-0.0645,-0.0628,-0.0613,-0.0599,-0.0563,-0.055,-0.0516,-0.0512,-0.0489,-0.0469,-0.0437,-0.0405,-0.0381,-0.0368,-0.0382,-0.0365,-0.0374,-0.0367,-0.0368,-0.0367,-0.0386,-0.0387,-0.0388,-0.0388,0,-0.0742,-0.0726,-0.0709,-0.0685,-0.067,-0.0649,-0.0627,-0.062,-0.0578,-0.0565,-0.0544,-0.0528,-0.0496,-0.0473,-0.0444,-0.0423,-0.0398,-0.0394,-0.0394,-0.0404,-0.0416,-0.0408,-0.0362,-0.0393,-0.0393,-0.0392,-0.0392,-0.0392,-0.0778,-0.0773,-0.0743,-0.0724,-0.0703,-0.0682,-0.0673,-0.0646,-0.0628,-0.06,-0.0579,-0.0559,-0.0528,-0.0486,-0.0467,-0.045,-0.0438,-0.0439,-0.0439,-0.044,-0.0443,-0.0419,-0.0444,-0.0444,-0.0444,-0.0444,-0.0443,0,-0.0819,-0.0798,-0.0781,-0.075,-0.0734,-0.0712,-0.0686,-0.0674,-0.0657,-0.0631,-0.0611,-0.0585,-0.0562,-0.0527,-0.0501,-0.0493,-0.0481,-0.0487,-0.0488,-0.0483,-0.0455,-0.0457,-0.0498,-0.0498,-0.0498,-0.0498,-0.0498,-0.0498,-0.0839,-0.0827,-0.0808,-0.0785,-0.0763,-0.0743,-0.073,-0.071,-0.0689,-0.0662,-0.0642,-0.062,-0.059,-0.056,-0.0537,-0.0528,-0.0519,-0.0529,-0.0516,-0.049,-0.0485,-0.048,-0.0482,-0.0528,-0.0528,-0.0545,-0.0545,-0.0545]}]]